Tracking 19199 objects as of 25-Jun-2018
HD Live streaming from Space Station
objects crossing your sky now

FENGYUN 1C DEB

Track FENGYUN 1C DEB now!
10-day predictions


NORAD ID: 36730
Int'l Code: 1999-025EBC
Perigee: 734.8 km
Apogee: 785.6 km
Inclination: 99.6 °
Period: 99.9 minutes
Semi major axis: 7131 km
RCS: 0.0027 m2 (small)
Launch date: May 10, 1999
Source: People's Republic of China (PRC)
Launch site: Taiyaun Space Center, China (TSC)

Note: This is SATELLITE DEBRIS
aabbcc
Your satellite tracking list
Your tracking list is empty




NASA's NSSDC Master Catalog

Two Line Element Set (TLE):
1 36730U 99025EBC 18176.32698161  .00001084  00000-0  34707-3 0  9990
2 36730  99.6458 301.1389 0035650  27.2775   1.5759 14.41640576459717
Source of the keplerian elements: AFSPC